Voltar ao catálogo

STARLINK-32049

AtivoComunicaçõesVLEO
NORAD 60199·PAYLOAD·🇺🇸 United States

Lançado Jul 3, 2024 de Cape Canaveral Space Force Station

Loading…

Próximas Passagens (próximas 24 horas)

TLE

AtualizadoSource: CelesTrak SupGP

Época: Sep 14, 2026, 21:31 UTC

1 60199C 24124S   26257.89701389 -.00044319  00000+0 -13090-2 0  2579
2 60199  53.1578 159.8345 0001312  91.4188  65.3928 15.34423577    14

Acompanhe STARLINK-32049 em tempo real com AllMySat

Download on the App Store